Marshfield, WI

2:08 PM CDT on June 25, 2017 (GMT -0500)
Marshfield Municipal

Weather History for KMFI - June, 2014

Change the Weather History Date:

Tuesday, June 24, 2014

  Actual Average Record
Temperature  
Mean Temperature 73 °F -  
Max Temperature 82 °F 78 °F 97 °F (1988)
Min Temperature 64 °F 53 °F 40 °F (1927)
Cooling Degree Days 8    
Growing Degree Days 23 (Base 50)    
Moisture  
Dew Point 62 °F    
Average Humidity 70    
Maximum Humidity 90    
Minimum Humidity 46    
Precipitation  
Precipitation 0.00 in - - ()
Sea Level Pressure  
Sea Level Pressure 29.88 in    
Wind  
Wind Speed 6 mph (NW)    
Max Wind Speed 12 mph    
Max Gust Speed -    
Visibility 10 miles    
Events Rain    
Averages and records for this station are not official NWS values.
T = Trace of Precipitation, MM = Missing Value Source: NWS Daily Summary

Daily Weather History Graph

Daily Weather History Graph

Search for Another Location

Airport or City:

Trip Planner

Search our weather history database for the weather conditions in past years. The results will help you decide how hot, cold, wet, or windy it might be!

Date:

Astronomy

Jun. 24, 2014 Rise Set
Actual Time 5:16 AM CDT 8:50 PM CDT
Civil Twilight 4:39 AM CDT 9:27 PM CDT
Nautical Twilight 3:50 AM CDT 10:16 PM CDT
Astronomical Twilight 2:46 AM CDT 11:20 PM CDT
Moon 3:28 AM CDT (6/24) 6:24 PM CDT (6/24)
Length of Visible Light 16h 47m
Length of Day
15h 33m
Waning Crescent, 7% of the Moon is Illuminated
Jun 24
Waning Crescent
Jun 27
New
Jul 5
First Quarter
Jul 12
Full
Jul 18
Last Quarter

Hourly Weather History & Observations

Time (CDT) Temp. Heat Index Dew Point Humidity Pressure Visibility Wind Dir Wind Speed Gust Speed Precip Events Conditions
12:54 AM 68.0 °F - 64.0 °F 87% 29.85 in 10.0 mi WNW 3.5 mph - 0.00 in Rain Light Rain
1:54 AM 66.9 °F - 64.0 °F 90% 29.84 in 10.0 mi WNW 5.8 mph - 0.00 in   Scattered Clouds
2:54 AM 66.9 °F - 63.0 °F 87% 29.85 in 10.0 mi WNW 6.9 mph - N/A   Mostly Cloudy
3:54 AM 66.9 °F - 63.0 °F 87% 29.84 in 10.0 mi WNW 5.8 mph - N/A   Overcast
4:54 AM 66.9 °F - 63.0 °F 87% 29.86 in 10.0 mi WNW 6.9 mph - N/A   Overcast
5:54 AM 64.9 °F - 62.1 °F 90% 29.85 in 10.0 mi WNW 5.8 mph - N/A   Scattered Clouds
6:54 AM 68.0 °F - 62.1 °F 81% 29.86 in 10.0 mi NW 8.1 mph - N/A   Clear
7:54 AM 71.1 °F - 63.0 °F 75% 29.87 in 10.0 mi WNW 5.8 mph - N/A   Clear
9:54 AM 75.9 °F - 62.1 °F 62% 29.88 in 10.0 mi WNW 10.4 mph - N/A   Clear
10:54 AM 78.1 °F - 63.0 °F 60% 29.88 in 10.0 mi WNW 8.1 mph - N/A   Clear
11:54 AM 80.1 °F 81.2 °F 62.1 °F 54% 29.88 in 10.0 mi NW 11.5 mph - N/A   Scattered Clouds
12:54 PM 80.1 °F 81.1 °F 61.0 °F 52% 29.88 in 10.0 mi WNW 9.2 mph - N/A   Scattered Clouds
1:54 PM 81.0 °F 81.3 °F 59.0 °F 47% 29.87 in 10.0 mi West 9.2 mph - N/A   Clear
2:54 PM 82.0 °F 82.4 °F 60.1 °F 47% 29.86 in 10.0 mi NW 10.4 mph - N/A   Partly Cloudy
3:54 PM 82.9 °F 83.2 °F 60.1 °F 46% 29.87 in 10.0 mi NW 10.4 mph - N/A   Clear
4:54 PM 82.0 °F 82.4 °F 60.1 °F 47% 29.87 in 10.0 mi NW 10.4 mph - N/A   Partly Cloudy
5:54 PM 75.9 °F - 61.0 °F 60% 29.88 in 10.0 mi NNE 9.2 mph - N/A   Scattered Clouds
6:54 PM 73.9 °F - 60.1 °F 62% 29.90 in 10.0 mi NNE 4.6 mph - N/A   Overcast
7:54 PM 72.0 °F - 64.0 °F 76% 29.90 in 10.0 mi NW 4.6 mph - 0.00 in Rain Light Rain
8:54 PM 70.0 °F - 62.1 °F 76% 29.89 in 10.0 mi North 5.8 mph - 0.00 in   Clear
9:54 PM 69.1 °F - 61.0 °F 75% 29.93 in 10.0 mi Calm Calm - N/A   Clear
10:54 PM 66.0 °F - 61.0 °F 84% 29.94 in 10.0 mi Calm Calm - N/A   Clear
11:54 PM 68.0 °F - 62.1 °F 81% 29.94 in 10.0 mi ENE 6.9 mph - N/A   Clear